User: anonymous   Login
Location: Ash Swamp
(41.5170°N, 74.6157°W)
Time: 11:58:50
(UTC+00:00)
Language:

Cosmos 2333 Rocket - Orbit

View from above orbital plane
View from above orbital plane
View from above satellite
View from above satellite

Ground track
Ground track

The orbit data is extracted from the following two-line orbital elements,

1 24298U 96051B   20272.12913889 -.00000134  00000-0 -46012-4 0  9997
2 24298  70.8413  54.0810 0017967 207.3751 152.6424 14.12495133241119
Epoch (UTC): 28 September 2020 03:05:57
Eccentricity: 0.0017967
inclination: 70.8413°
perigee height: 838 km
apogee height: 864 km
right ascension of ascending node: 54.0810°
argument of perigee: 207.3751°
revolutions per day: 14.12495133
mean anomaly at epoch: 152.6424°
orbit number at epoch: 24111

The dashed part of the orbit path shows where the satellite is in the earth's shadow,  

DLR